Date String (YYYY-MM-DD hh:mm:ss) UTC,Instrument flags,absolute air pressure of the measurement (hPa),sample flow rate (lpm),inlet stack bypass flow (lpm),air temperature of the measurement (°C),ambient temperature measured by the external sensor (°C),aerosol sample conditioner tube jacket temperature (°C),OPC LED temperature (°C),internal box temperature (°C),relative humidity of the measurement (%),span deviation,mass concentration of particles derived from Lorenz-Mie calculation of OPC scattering (μg/m³),mass concentration of particles derived from Lorenz-Mie calculation of OPC scattering (μg/m³),mass concentration of particles derived from Lorenz-Mie calculation of OPC scattering (μg/m³)
DateTimeUTC,F1_M11,P_M11,Q1_M11,Q2_M11,T1_M11,T2_M11,T3_M11,T4_M11,T5_M11,U1_M11,ZSPAN_M11,X0_M11,X2_M11,X1_M11
2023-07-07 06:00:00,SystemResetWarning,0831.1,5.00,000.00,029.6,028.5,000.0,038.1,031.2,27.2,0000.0,0009.44,0005.73,0005.29
2023-07-07 06:01:00,SystemResetWarning,0831.1,5.00,000.00,029.7,028.5,000.0,038.1,031.3,27.0,0000.0,0009.42,0005.72,0005.29
2023-07-07 06:02:00,SystemResetWarning,0831.2,4.99,000.00,029.7,027.2,000.0,038.0,031.2,26.9,0000.0,0009.40,0005.70,0005.29
2023-07-07 06:03:00,SystemResetWarning,0831.1,5.00,000.00,029.6,025.7,000.0,037.9,031.0,27.3,0000.0,0009.35,0005.69,0005.29
2023-07-07 06:04:00,SystemResetWarning,0831.0,5.01,000.00,029.5,025.3,000.0,037.8,030.7,27.5,0000.0,0009.57,0005.70,0005.29
2023-07-07 06:05:00,SystemResetWarning,0830.9,5.01,000.00,029.4,025.5,000.0,037.9,030.6,27.6,0000.0,0009.69,0005.74,0005.30
2023-07-07 06:06:00,SystemResetWarning,0830.9,4.98,000.00,029.3,025.9,000.0,037.9,030.6,27.7,0000.0,0009.68,0005.76,0005.31
2023-07-07 06:07:00,SystemResetWarning,0830.9,4.99,000.00,029.3,026.3,000.0,037.9,030.6,27.7,0000.0,0009.47,0005.83,0005.32
2023-07-07 06:08:00,SystemResetWarning,0830.9,5.02,000.00,029.3,026.7,000.0,037.9,030.7,27.7,0000.0,0009.48,0005.89,0005.34
2023-07-07 06:09:00,SystemResetWarning,0830.8,5.00,000.00,029.3,027.0,000.0,037.9,030.8,28.2,0000.0,0009.43,0005.92,0005.36
2023-07-07 06:10:00,SystemResetWarning,0830.8,5.00,000.00,029.3,027.3,000.0,037.9,030.8,28.2,0000.0,0009.44,0005.96,0005.38
2023-07-07 06:11:00,SystemResetWarning,0830.8,5.00,000.00,029.3,027.5,000.0,037.9,030.8,27.8,0000.0,0009.57,0005.98,0005.40
2023-07-07 06:12:00,SystemResetWarning,0830.8,4.99,000.00,029.3,027.7,000.0,037.9,030.9,29.0,0000.0,0009.87,0006.03,0005.43
2023-07-07 06:13:00,SystemResetWarning,0830.8,5.00,000.00,029.4,027.8,000.0,037.9,030.9,28.9,0000.0,0009.92,0006.04,0005.44
2023-07-07 06:14:00,SystemResetWarning,0830.7,5.00,000.00,029.4,027.9,000.0,037.9,031.0,28.4,0000.0,0010.04,0006.08,0005.44
2023-07-07 06:15:00,SystemResetWarning,0830.7,5.00,000.00,029.4,028.0,000.0,037.9,031.0,28.3,0000.0,0009.90,0006.07,0005.44
2023-07-07 06:16:00,SystemResetWarning,0830.7,5.00,000.00,029.4,028.1,000.0,037.9,031.0,28.0,0000.0,0009.71,0006.08,0005.45
2023-07-07 06:17:00,SystemResetWarning,0830.7,5.00,000.00,029.5,028.2,000.0,037.9,031.1,27.8,-000.1,0009.82,0006.08,0005.45
2023-07-07 06:18:00,SystemResetWarning,0830.6,5.01,000.00,029.5,028.3,000.0,038.0,031.1,27.5,0000.0,0009.75,0006.06,0005.46
2023-07-07 06:19:00,SystemResetWarning,0830.6,5.00,000.00,029.5,028.3,000.0,038.0,031.1,27.4,0000.0,0009.75,0006.06,0005.45
2023-07-07 06:20:00,SystemResetWarning,0830.5,5.00,000.00,029.6,028.4,000.0,038.0,031.1,27.3,0000.0,0009.71,0006.07,0005.45
2023-07-07 06:21:00,SystemResetWarning,0830.6,4.99,000.00,029.6,028.4,000.0,038.0,031.2,27.2,0000.0,0009.77,0006.09,0005.45
2023-07-07 06:22:00,SystemResetWarning,0830.4,5.00,000.00,029.6,028.5,000.0,038.1,031.2,27.0,0000.0,0009.72,0006.09,0005.45
2023-07-07 06:23:00,SystemResetWarning,0830.4,5.00,000.00,029.6,028.5,000.0,038.1,031.2,26.9,0000.0,0009.55,0006.11,0005.45
2023-07-07 06:24:00,SystemResetWarning,0830.4,5.00,000.00,029.7,028.5,000.0,038.1,031.3,26.8,0000.0,0009.99,0006.14,0005.45
2023-07-07 06:25:00,SystemResetWarning,0830.3,5.00,000.00,029.7,027.1,000.0,038.0,031.2,26.8,0000.0,0010.53,0006.15,0005.46
2023-07-07 06:26:00,SystemResetWarning,0830.2,5.00,000.00,029.6,025.6,000.0,037.9,031.0,26.9,0000.0,0010.55,0006.15,0005.47
2023-07-07 06:27:00,SystemResetWarning,0830.2,5.01,000.00,029.5,025.3,000.0,037.9,030.7,27.3,0000.0,0010.62,0006.14,0005.47
2023-07-07 06:28:00,SystemResetWarning,0830.3,5.01,000.00,029.4,025.5,000.0,037.9,030.5,27.7,0000.0,0010.52,0006.12,0005.46
2023-07-07 06:29:00,SystemResetWarning,0830.2,5.00,000.00,029.3,025.9,000.0,037.9,030.6,27.8,0000.0,0010.75,0006.11,0005.47
2023-07-07 06:30:00,SystemResetWarning,0830.3,5.00,000.00,029.3,026.3,000.0,037.9,030.6,27.8,0000.0,0010.77,0006.08,0005.46
2023-07-07 06:31:00,SystemResetWarning,0830.3,5.00,000.00,029.3,026.7,000.0,037.9,030.7,28.1,0000.0,0010.64,0006.02,0005.46
2023-07-07 06:32:00,SystemResetWarning,0830.3,5.01,000.00,029.3,027.0,000.0,037.9,030.7,28.0,0000.0,0010.58,0005.98,0005.47
2023-07-07 06:33:00,SystemResetWarning,0830.3,5.00,000.00,029.3,027.2,000.0,037.9,030.8,27.9,-000.1,0010.70,0005.97,0005.47
2023-07-07 06:34:00,SystemResetWarning,0830.3,5.00,000.00,029.3,027.4,000.0,037.9,030.8,27.7,-001.6,0010.64,0005.94,0005.47
2023-07-07 06:35:00,SystemResetWarning,0830.3,4.99,000.00,029.3,027.6,000.0,037.9,030.8,27.7,-002.1,0010.31,0005.93,0005.47
2023-07-07 06:36:00,SystemResetWarning,0830.4,4.99,000.00,029.3,027.7,000.0,037.9,030.9,27.7,-001.7,0009.62,0005.92,0005.47
2023-07-07 06:37:00,SystemResetWarning,0830.4,5.02,000.00,029.3,027.9,000.0,037.9,030.9,27.6,-001.6,0009.68,0005.95,0005.48
2023-07-07 06:38:00,SystemResetWarning,0830.4,5.01,000.00,029.4,028.0,000.0,037.9,030.9,27.6,-001.5,0009.63,0005.95,0005.49
2023-07-07 06:39:00,SystemResetWarning,0830.4,5.00,000.00,029.4,028.0,000.0,037.9,031.0,27.6,-001.5,0009.71,0005.98,0005.50
2023-07-07 06:40:00,SystemResetWarning,0830.4,4.99,000.00,029.4,028.1,000.0,037.9,031.0,27.2,-001.6,0009.56,0006.01,0005.52
2023-07-07 06:41:00,SystemResetWarning,0830.4,4.99,000.00,029.4,028.2,000.0,038.0,031.0,26.9,-001.4,0009.45,0006.04,0005.53
2023-07-07 06:42:00,SystemResetWarning,0830.4,5.00,000.00,029.5,028.2,000.0,038.0,031.1,27.0,-001.2,0009.82,0006.07,0005.55
2023-07-07 06:43:00,SystemResetWarning,0830.4,5.01,000.00,029.5,028.3,000.0,038.0,031.1,27.3,-000.7,0009.81,0006.06,0005.55
2023-07-07 06:44:00,SystemResetWarning,0830.4,5.00,000.00,029.5,028.3,000.0,038.0,031.1,27.6,-000.1,0009.64,0006.06,0005.54
2023-07-07 06:45:00,SystemResetWarning,0830.6,4.99,000.00,029.6,028.4,000.0,038.0,031.2,27.9,-000.1,0009.64,0006.04,0005.53
2023-07-07 06:46:00,SystemResetWarning,0830.6,5.00,000.00,029.6,028.4,000.0,038.1,031.2,27.6,0000.2,0009.55,0005.98,0005.51
2023-07-07 06:47:00,SystemResetWarning,0830.6,4.99,000.00,029.6,028.4,000.0,038.1,031.2,27.6,0000.0,0009.54,0005.98,0005.50
2023-07-07 06:48:00,SystemResetWarning,0830.5,5.01,000.00,029.6,028.5,000.0,038.1,031.2,28.0,0000.0,0009.48,0005.97,0005.50
2023-07-07 06:49:00,SystemResetWarning,0830.5,5.00,000.00,029.7,028.5,000.0,038.1,031.3,28.1,0000.0,0009.36,0005.96,0005.49
2023-07-07 06:50:00,SystemResetWarning,0830.5,5.01,000.00,029.7,028.5,000.0,038.1,031.3,28.3,0000.0,0009.21,0005.93,0005.48
2023-07-07 06:51:00,SystemResetWarning,0830.5,5.01,000.00,029.7,028.6,000.0,038.1,031.3,28.4,0000.0,0009.64,0005.93,0005.47
2023-07-07 06:52:00,SystemResetWarning,0830.6,5.00,000.00,029.7,028.6,000.0,038.2,031.3,28.0,0000.0,0009.70,0005.92,0005.46
2023-07-07 06:53:00,SystemResetWarning,0830.5,4.98,000.00,029.7,027.6,000.0,038.1,031.3,28.0,0000.0,0009.49,0005.91,0005.44
2023-07-07 06:54:00,SystemResetWarning,0830.7,5.00,000.00,029.7,025.9,000.0,038.0,031.1,28.1,0000.0,0009.43,0005.91,0005.41
2023-07-07 06:55:00,SystemResetWarning,0830.7,5.01,000.00,029.6,025.2,000.0,037.9,030.9,28.4,0000.0,0009.31,0005.90,0005.42
2023-07-07 06:56:00,SystemResetWarning,0830.7,5.01,000.00,029.5,025.4,000.0,037.9,030.6,28.3,0000.0,0009.23,0005.89,0005.42
2023-07-07 06:57:00,SystemResetWarning,0830.5,5.01,000.00,029.4,025.8,000.0,038.0,030.6,28.4,0000.0,0009.21,0005.92,0005.43
2023-07-07 06:58:00,SystemResetWarning,0830.6,5.00,000.00,029.3,026.2,000.0,038.0,030.6,28.4,0000.0,0009.29,0005.95,0005.43
2023-07-07 06:59:00,SystemResetWarning,0830.6,5.00,000.00,029.3,026.6,000.0,038.0,030.7,27.8,0000.0,0009.35,0005.95,0005.43
